EHI
9 18 25 25 25 26 27 27 27 29 29 26 21 16 13 11 8 4 2 1 1 1 0 0 0 0 0 0 0 0 0 0 0 0 0 0 0 0 0 0 0 0 0
14 21 27 26 26 26 26 26 27 29 29 26 22 17 13 10 8 5 2 1 0 0 0 0 0 0 0 0 0 0 0 0 0 0 0 0 0 0 0 0 0 0 0
18 24 28 29 28 26 24 26 28 29 29 26 22 19 15 11 6 3 2 1 0 0 0 0 0 0 0 0 0 0 0 0 0 0 0 0 0 0 0 0 0 0 0
18 23 28 30 29 26 24 26 28 29 28 25 21 20 18 12 5 3 2 1 0 0 0 0 0 0 0 0 0 0 0 0 0 0 0 0 0 0 0 0 0 0 0
15 20 26 30 29 27 26 25 26 27 27 24 21 19 17 12 7 5 3 1 0 0 0 0 0 0 0 0 0 0 0 0 0 0 0 0 0 0 0 0 0 0 0
14 17 24 29 30 28 27 24 24 25 24 22 19 17 15 12 9 7 5 2 1 0 0 0 0 0 0 0 0 0 0 0 0 0 0 0 0 0 0 0 0 0 0
16 17 21 27 30 28 26 24 23 23 22 21 19 16 14 13 11 8 5 3 2 1 0 0 0 0 0 0 0 0 0 0 0 0 0 0 0 0 0 0 0 0 0
20 19 19 22 26 26 25 24 23 21 21 20 18 16 14 13 12 9 5 4 3 2 1 0 0 0 0 0 0 0 0 0 0 0 0 0 0 0 0 0 0 0 0
22 20 18 17 20 22 23 24 23 21 20 19 17 15 14 13 11 8 6 4 4 3 2 1 0 0 0 0 0 0 0 0 0 0 0 0 0 0 0 0 0 0 0
20 20 18 16 16 18 20 20 20 20 19 17 14 12 11 10 9 8 6 5 5 4 3 2 0 0 0 0 0 0 0 0 0 0 0 0 0 0 0 0 0 0 0
18 18 18 17 17 16 16 17 17 18 17 13 10 8 7 7 6 6 5 5 5 4 3 2 0 0 0 0 0 0 0 0 0 0 0 0 0 0 0 0 0 0 0
15 16 16 16 16 15 15 15 15 15 13 11 8 5 4 4 4 4 3 3 4 3 2 1 0 0 0 0 0 0 0 0 0 0 0 0 0 0 0 0 0 0 0
12 13 13 12 12 12 13 13 13 12 11 9 7 5 2 2 3 3 3 3 3 2 1 0 0 0 0 0 0 0 0 0 0 0 0 0 0 0 0 0 0 0 0
10 10 10 9 9 10 10 10 10 10 10 9 8 5 2 1 2 2 2 2 1 1 0 0 0 0 0 0 0 0 0 0 0 0 0 0 0 0 0 0 0 0 0
8 9 9 8 7 7 9 9 8 9 9 9 9 6 2 0 1 1 1 1 0 0 0 0 0 0 0 0 0 0 0 0 0 0 0 0 0 0 0 0 0 0 0
6 6 7 7 6 6 7 7 6 7 9 10 9 7 3 1 0 0 0 0 0 0 0 0 0 0 0 0 0 0 0 0 0 0 0 0 0 0 0 0 0 0 0
3 3 3 4 5 5 3 3 3 5 8 10 9 7 5 3 1 0 0 0 0 0 0 0 0 0 0 0 0 0 0 0 0 0 0 0 0 0 0 0 0 0 0
1 1 1 2 2 2 1 0 1 3 6 8 8 7 6 5 3 1 0 0 0 0 0 0 0 0 0 0 0 0 0 0 0 0 0 0 0 0 0 0 0 0 0
0 0 0 0 0 0 0 0 0 1 3 5 6 5 5 5 3 1 0 0 0 0 0 0 0 0 0 0 0 0 0 0 0 0 0 0 0 0 0 0 0 0 0
0 0 0 0 0 0 0 0 0 0 1 2 3 2 3 3 2 1 0 0 0 0 0 0 0 0 0 0 0 0 0 0 0 0 0 0 0 0 0 0 0 0 0
0 0 0 0 0 0 0 0 0 0 1 1 1 0 1 1 1 1 0 0 0 0 0 0 0 0 0 0 0 0 0 0 0 0 0 0 0 0 0 0 0 0 0
0 0 0 0 0 0 0 0 0 0 0 0 0 0 0 0 0 0 0 0 0 0 0 0 0 0 0 0 0 0 0 0 0 0 0 0 0 0 0 0 0 0 0
0 0 0 0 0 0 0 0 0 0 0 0 0 0 0 0 0 0 0 0 0 0 0 0 0 0 0 0 0 0 0 0 0 0 0 0 0 0 0 0 0 0 0
0 0 0 0 0 0 0 0 0 0 0 0 0 0 0 0 0 0 0 0 0 0 0 0 0 0 0 0 0 0 0 0 0 0 0 0 0 0 0 0 0 0 0
0 0 0 0 0 0 0 0 0 0 0 0 0 0 0 0 0 0 0 0 0 0 0 0 0 0 0 0 0 0 0 0 0 0 0 0 0 0 0 0 0 0 0
0 0 0 0 0 0 0 0 0 0 0 0 0 0 0 0 0 0 0 0 0 0 0 0 0 0 0 0 0 0 0 0 0 0 0 0 0 0 0 0 0 0 0
Wind_Speed
2 3 8 9 10 10 10 11 12 12 12 13 13 13 13 12 12 12 11 11 11 11 11 11 11 11 11 11 11 11 11 11 11 10 10 10 9 9 9 9 8 5 8
4 4 9 9 10 10 10 11 12 12 12 12 12 12 12 12 12 11 11 11 11 10 10 10 10 10 11 11 11 11 11 11 10 10 10 9 9 8 8 8 7 5 8
5 5 8 10 10 10 10 11 11 11 12 11 12 12 12 11 11 11 11 10 10 10 9 9 9 10 10 10 10 10 10 10 10 10 10 5 5 7 8 7 7 7 7
5 4 6 10 10 11 11 11 11 11 11 11 11 11 11 11 11 10 10 10 10 9 9 9 9 9 9 9 9 9 9 9 10 9 5 4 4 6 7 7 7 7 7
4 4 6 10 10 10 10 10 11 11 11 11 11 10 10 11 10 10 10 10 9 9 9 8 8 9 9 8 8 8 8 9 9 7 4 4 3 5 6 6 7 7 6
4 3 5 10 9 10 10 10 10 10 11 10 10 10 10 10 10 10 9 9 9 9 8 8 8 8 8 8 8 8 8 8 7 4 4 3 3 5 6 7 7 6 6
4 3 4 8 9 9 9 10 9 10 10 10 10 10 10 10 10 9 9 9 9 8 8 8 8 8 7 7 7 8 8 7 5 3 3 3 3 6 6 7 7 7 7
5 4 4 7 8 8 8 9 9 9 9 9 9 9 9 10 9 9 9 8 8 8 8 7 7 8 7 7 7 8 8 7 5 4 3 2 4 6 6 6 7 7 6
5 5 4 4 5 6 7 8 8 9 8 8 9 9 9 9 9 9 8 8 7 7 7 7 7 7 7 7 7 8 8 8 4 2 3 2 5 6 6 6 6 6 6
5 5 4 4 4 4 4 7 8 8 8 8 8 8 8 8 8 8 7 7 7 7 7 7 7 7 8 7 7 7 8 6 3 3 2 2 5 6 6 6 6 6 6
5 4 4 4 4 4 4 5 5 6 7 7 6 7 7 3 3 4 5 7 7 7 7 7 7 8 8 7 7 7 6 2 2 2 2 4 5 5 6 5 5 6 6
3 3 3 4 4 3 3 3 2 3 3 3 3 3 3 3 3 4 5 6 6 7 6 7 7 7 6 3 4 6 2 3 2 2 2 5 5 6 6 6 6 6 6
2 2 3 3 3 3 2 2 2 2 2 2 3 3 3 3 2 3 2 3 3 4 3 4 4 3 2 2 2 2 2 2 1 2 3 6 6 6 6 6 6 7 7
3 2 2 2 3 3 3 2 2 2 2 2 2 3 3 2 2 2 1 2 2 1 2 2 2 2 2 2 2 2 2 2 1 1 2 6 6 6 7 7 7 7 7
3 2 2 2 3 2 3 1 2 1 2 2 2 2 2 2 2 2 1 1 1 1 1 2 2 2 2 2 2 2 2 2 2 2 2 6 7 7 7 8 8 8 8
2 2 2 2 2 2 2 1 1 1 2 2 2 2 2 2 2 2 2 1 1 1 1 1 1 1 1 1 2 2 2 2 2 2 2 4 7 8 8 8 9 9 9
2 2 2 2 2 2 2 1 1 1 2 2 2 2 2 2 2 2 1 1 1 1 2 2 2 2 2 2 2 2 2 2 2 2 2 2 3 6 8 9 9 10 10
2 2 2 2 2 2 2 1 1 1 2 2 1 2 2 2 2 2 2 1 1 2 2 2 1 2 2 2 2 2 2 2 2 2 2 2 2 3 5 9 9 10 10
2 2 2 2 3 2 2 2 2 2 2 2 2 2 2 2 2 2 2 1 2 2 2 1 1 1 1 1 1 2 2 1 2 2 2 3 2 3 3 6 9 9 10
2 2 3 3 3 3 3 2 2 3 2 2 2 2 2 1 2 2 2 1 2 2 1 1 1 1 1 1 1 2 2 1 1 2 2 2 2 3 3 4 4 6 9
3 3 2 3 2 2 2 2 1 1 1 1 1 2 2 2 2 2 2 2 1 1 1 2 1 2 2 1 2 2 2 2 2 2 2 2 3 3 4 4 3 3 4
2 2 2 2 2 1 1 1 1 1 0 0 1 1 1 2 2 2 1 1 2 1 2 2 2 2 1 1 2 1 2 3 2 2 2 2 3 3 3 4 3 3 3
1 1 1 1 1 2 2 2 2 2 2 1 2 1 1 1 1 2 2 1 2 2 2 1 2 2 1 0 1 2 2 1 2 2 2 2 3 2 3 3 3 4 4
1 1 1 1 2 2 2 2 3 2 1 1 1 0 0 1 1 2 2 2 2 1 2 1 1 1 2 1 0 1 1 2 1 2 2 2 2 2 3 3 3 3 3
0 1 1 2 2 2 2 2 2 2 1 1 1 1 1 1 1 2 1 1 1 1 1 1 1 1 2 2 1 1 1 0 1 1 3 3 3 2 2 3 3 3 3
1 2 2 2 2 1 2 2 2 2 2 2 2 1 0 0 1 2 1 1 1 0 1 1 2 2 1 1 1 1 1 1 1 1 1 3 4 3 3 2 2 2 3
Wind_Direction
167 173 150 145 139 132 128 123 119 114 113 112 112 110 109 107 105 100 97 93 89 86 84 83 83 82 81 79 76 73 71 68 67 65 61 61 60 60 59 56 50 45 51
148 157 147 146 141 135 129 126 121 117 115 114 114 113 111 109 106 102 98 94 91 89 86 85 82 82 81 79 77 75 73 70 67 61 56 55 57 59 59 56 52 54 50
131 142 145 145 141 136 131 128 124 121 119 117 116 114 113 111 107 105 101 96 93 90 88 87 84 84 83 81 79 77 74 71 68 62 53 37 42 55 54 52 53 50 47
129 136 138 136 138 137 133 129 128 125 122 120 118 117 116 115 112 108 103 99 95 92 89 88 86 85 84 82 80 78 75 70 67 61 45 27 25 49 49 48 46 43 43
114 120 136 130 130 134 134 131 127 127 124 121 120 120 119 118 115 111 105 101 97 93 90 88 87 86 84 82 81 79 76 72 65 56 40 26 18 41 45 47 41 39 41
99 104 126 126 128 129 129 130 128 125 124 123 122 122 121 119 116 111 106 101 97 94 91 89 87 86 83 82 80 77 76 72 62 47 33 18 6 36 46 47 43 38 36
98 86 117 125 127 126 128 127 126 124 122 124 124 122 120 116 112 108 104 99 96 93 91 90 88 87 85 82 81 78 75 69 61 44 26 7 4 36 43 41 40 36 32
105 86 95 114 121 122 123 125 121 119 121 124 124 122 119 117 114 110 106 102 99 96 93 90 88 86 82 80 80 79 74 68 60 43 22 6 26 41 41 40 37 32 28
90 84 72 86 105 110 112 112 115 114 114 117 121 120 116 114 114 112 107 104 100 96 91 89 87 83 80 79 78 76 72 65 61 41 22 1 23 33 35 33 26 22 20
77 74 69 66 76 91 97 101 101 108 110 109 112 113 110 108 110 108 104 102 101 95 90 86 85 82 77 75 75 73 67 61 48 34 12 4 23 29 29 25 19 12 7
70 64 70 68 65 74 89 94 96 99 103 102 102 104 103 101 103 102 98 99 99 92 87 85 82 78 72 66 70 71 62 51 41 21 352 15 23 24 20 15 9 2 359
91 68 69 76 75 69 87 86 82 84 93 97 97 103 103 101 97 94 91 93 91 84 80 78 77 74 64 52 58 62 55 50 41 9 359 20 22 20 16 14 9 360 352
130 90 70 73 80 81 82 93 83 84 82 88 100 104 102 94 94 87 90 83 76 74 66 64 60 54 56 58 58 56 58 52 35 4 1 20 19 14 10 7 3 359 353
113 94 78 68 71 75 86 99 107 105 98 97 109 112 114 113 104 108 105 93 81 74 71 64 63 54 55 59 68 66 59 51 35 14 1 19 18 13 7 1 357 353 351
116 98 87 83 75 72 83 91 114 124 124 122 118 121 121 124 129 125 120 108 95 85 85 75 66 60 56 51 54 62 55 46 38 29 8 18 18 12 3 359 352 348 348
118 113 100 100 87 80 79 82 122 133 126 120 119 124 123 122 125 123 127 119 101 93 91 94 87 75 61 59 51 51 55 48 41 32 22 17 20 15 5 356 350 348 347
136 114 104 105 87 87 83 85 87 125 122 117 116 117 115 115 126 120 117 120 115 96 88 80 65 65 64 58 50 43 51 45 39 30 23 17 11 12 6 360 355 352 351
111 108 105 93 88 84 78 77 75 80 105 104 97 98 98 101 108 114 110 111 115 107 103 103 89 72 58 53 43 32 36 37 36 30 29 21 16 10 1 2 359 356 354
114 115 96 88 93 83 72 72 76 64 74 78 88 90 84 90 99 104 111 115 113 109 105 106 96 99 90 58 50 39 28 32 20 28 27 24 19 11 2 358 3 0 358
78 93 89 81 84 82 77 65 66 57 57 62 66 80 92 91 99 107 106 96 101 99 94 95 105 78 97 85 65 39 16 18 18 22 19 20 16 11 8 4 1 355 360
58 66 74 71 76 87 85 85 84 60 37 60 47 58 80 82 92 109 121 123 115 117 129 123 119 97 56 51 63 23 5 18 29 15 15 17 13 8 9 7 2 356 349
75 80 80 73 68 81 90 113 107 108 56 84 51 38 53 80 91 96 102 138 134 112 86 90 105 104 65 54 88 77 8 349 359 7 6 17 9 4 4 0 356 355 348
75 111 105 89 68 49 55 82 76 64 34 26 28 7 357 45 90 100 103 102 116 121 130 114 121 118 127 46 81 113 119 249 311 321 340 355 353 354 347 340 346 345 344
216 91 93 90 79 64 77 90 105 106 115 278 260 294 354 47 52 69 104 110 119 129 134 151 119 134 136 159 71 62 135 165 173 307 312 324 332 330 328 331 332 329 333
108 96 85 77 72 75 79 92 108 98 81 17 20 62 47 37 56 51 75 103 103 124 149 154 153 146 160 170 167 134 86 65 155 197 289 311 315 297 300 305 312 317 323
61 69 71 75 59 57 82 83 93 109 89 67 26 26 52 23 41 34 36 61 92 125 176 180 178 174 183 180 168 160 164 170 205 205 264 296 301 298 300 293 300 309 316